Location: St. Louis
(38.6270°N, 90.1994°W)
Time: 08:28:51
(UTC-06:00)

A-11 Canister half - Pass Details

Date: 11 December 2021
Orbit: 1524 x 1684 km, 47.3° (Epoch: 17 January)

Event Time Altitude Azimuth Distance (km) Brightness Sun altitude
Rises 06:47:13 0° 299° (WNW) 4,917 - -4.6°
Exits shadow 06:48:52 - 296° (WNW) 4,424 10.7 -4.3°
Reaches altitude 10° 06:50:37 10° 293° (WNW) 3,911 10.5 -4.0°
Maximum altitude 06:59:42 41° 227° (SW) 2,201 9.7 -2.4°
Drops below altitude 10° 07:08:30 10° 161° (SSE) 3,784 11.9 -0.9°
Sets 07:11:46 0° 154° (SSE) 4,744 12.6 -0.3°
